Naples Weather Center

Moon Phase Calendar



Online Cameras

 


      

Current Conditions in Naples
7/27/2021 5:05:26 PM

86°F
Feels Like 99
Clouds
Humidity
82%
Pressure
30"
Wind
10.5 mph (WSW)
Dew Point
80°F
UV Index
4/10 (Moderate)
Visibility
6 mi

Hourly Forecast

Date & Time Tue, Jul 27
5:00 PM
Tue, Jul 27
6:00 PM
Tue, Jul 27
7:00 PM
Tue, Jul 27
8:00 PM
Tue, Jul 27
9:00 PM
Tue, Jul 27
10:00 PM
Tue, Jul 27
11:00 PM
Wed, Jul 28
12:00 AM
Wed, Jul 28
1:00 AM
Wed, Jul 28
2:00 AM
Wed, Jul 28
3:00 AM
Wed, Jul 28
4:00 AM
Wed, Jul 28
5:00 AM
Wed, Jul 28
6:00 AM
Wed, Jul 28
7:00 AM
Wed, Jul 28
8:00 AM
Wed, Jul 28
9:00 AM
Wed, Jul 28
10:00 AM
Wed, Jul 28
11:00 AM
Wed, Jul 28
12:00 PM
Wed, Jul 28
1:00 PM
Wed, Jul 28
2:00 PM
Wed, Jul 28
3:00 PM
Wed, Jul 28
4:00 PM
Wed, Jul 28
5:00 PM
Wed, Jul 28
6:00 PM
Wed, Jul 28
7:00 PM
Wed, Jul 28
8:00 PM
Wed, Jul 28
9:00 PM
Wed, Jul 28
10:00 PM
Wed, Jul 28
11:00 PM
Thu, Jul 29
12:00 AM
Thu, Jul 29
1:00 AM
Thu, Jul 29
2:00 AM
Thu, Jul 29
3:00 AM
Thu, Jul 29
4:00 AM
Thu, Jul 29
5:00 AM
Thu, Jul 29
6:00 AM
Thu, Jul 29
7:00 AM
Thu, Jul 29
8:00 AM
Thu, Jul 29
9:00 AM
Thu, Jul 29
10:00 AM
Thu, Jul 29
11:00 AM
Thu, Jul 29
12:00 PM
Thu, Jul 29
1:00 PM
Thu, Jul 29
2:00 PM
Thu, Jul 29
3:00 PM
Thu, Jul 29
4:00 PM
Condition
Clouds

Clouds

Clouds

Clouds

Clouds

Clouds

Clouds

Clouds

Clouds

Clouds

Clouds

Clouds

Clouds

Clouds

Clouds

Clouds

Clear

Clear

Clear

Clear

Clear

Clear

Clear

Clear

Clear

Clear

Clear

Clear

Clear

Clear

Clear

Clouds

Clouds

Clouds

Clear

Clear

Clear

Clear

Clear

Clear

Clear

Clear

Clear

Clear

Clear

Clear

Clouds

Clear
Temperature 86°F86°F86°F85°F85°F85°F84°F84°F84°F83°F83°F83°F83°F83°F82°F84°F85°F85°F86°F87°F87°F87°F87°F87°F87°F86°F86°F85°F84°F84°F84°F84°F84°F83°F83°F83°F83°F82°F82°F83°F84°F85°F86°F87°F88°F88°F88°F88°F
Feels Like 99°F99°F97°F94°F92°F90°F89°F89°F89°F88°F88°F88°F88°F88°F88°F90°F91°F92°F92°F93°F93°F93°F94°F93°F93°F92°F91°F90°F90°F90°F90°F90°F90°F89°F89°F88°F88°F88°F87°F89°F90°F91°F92°F93°F94°F94°F94°F94°F
Cloudiness 69%70%68%62%24%24%38%32%28%28%34%38%28%22%17%15%6%6%6%8%8%7%5%4%4%4%4%5%9%8%5%20%18%19%1%1%0%0%0%0%0%0%0%1%1%2%12%10%
Visibility 6 mi6 mi6 mi6 mi6 mi6 mi6 mi6 mi6 mi6 mi6 mi6 mi6 mi6 mi6 mi6 mi6 mi6 mi6 mi6 mi6 mi6 mi6 mi6 mi6 mi6 mi6 mi6 mi6 mi6 mi6 mi6 mi6 mi6 mi6 mi6 mi6 mi6 mi6 mi6 mi6 mi6 mi6 mi6 mi6 mi6 mi6 mi6 mi
Precipitation 39%31%31%25%0%0%0%0%0%0%0%0%0%0%0%0%0%0%0%0%0%0%0%0%0%0%0%0%2%11%7%7%7%7%2%4%0%0%0%0%0%0%0%0%0%0%0%0%
Humidity 82%78%74%71%68%65%65%65%67%68%69%70%71%72%72%70%67%65%63%62%60%59%59%58%59%59%61%65%66%67%69%70%71%71%72%72%73%73%74%71%69%65%62%60%60%59%59%59%
Dew Point 80°F78°F77°F75°F73°F71°F71°F71°F71°F72°F72°F72°F72°F73°F73°F73°F72°F72°F72°F72°F72°F71°F71°F71°F71°F71°F71°F72°F72°F72°F73°F73°F73°F73°F73°F73°F73°F73°F73°F73°F73°F72°F71°F71°F71°F71°F71°F71°F
Pressure 30"30"30"30"30"30"30.03"30"30"30"30"30"30"30"30"30.03"30.06"30.06"30.06"30.06"30.06"30.03"30.03"30"30"29.97"29.97"29.97"29.97"30"30"30"30"29.97"29.97"29.97"29.97"29.97"30"30"30.03"30.03"30.06"30.03"30.03"30.03"30.03"30"
Wind Speed 10.5 mph11 mph6.5 mph8.1 mph5.7 mph4.1 mph3.4 mph2.8 mph4.3 mph4.7 mph5.3 mph4.9 mph5.4 mph6 mph6 mph5.5 mph5.8 mph6.6 mph7.3 mph7.9 mph8.4 mph9.3 mph9.6 mph9.5 mph9.9 mph9.5 mph9.8 mph10.1 mph10.4 mph7.1 mph7.8 mph6.7 mph6 mph5.2 mph4.5 mph5.5 mph5.7 mph4.2 mph2.2 mph1.8 mph2.3 mph2 mph4 mph6.3 mph8 mph9.3 mph10.4 mph10.8 mph
Wind
Direction
240°
WSW
240°
WSW
277°
W
265°
W
264°
W
275°
W
284°
WNW
240°
WSW
218°
SW
209°
SSW
204°
SSW
214°
SW
230°
SW
233°
SW
241°
WSW
251°
WSW
252°
WSW
253°
WSW
264°
W
270°
W
273°
W
275°
W
274°
W
272°
W
274°
W
280°
W
287°
WNW
293°
WNW
294°
WNW
306°
NW
305°
NW
301°
WNW
298°
WNW
297°
WNW
301°
WNW
315°
NW
321°
NW
323°
NW
322°
NW
357°
N

N
314°
NW
278°
W
275°
W
267°
W
265°
W
268°
W
272°
W

Daily Forecast

Date High Low Precip. Humidity
Today
Jul 27

Rain
87 °F
82 °F
97%
66%
Wednesday
Jul 28

Clear
87 °F
82 °F
11%
60%
Thursday
Jul 29

Rain
88 °F
82 °F
46%
59%
Friday
Jul 30

Rain
87 °F
83 °F
51%
62%
Saturday
Jul 31

Rain
88 °F
82 °F
72%
62%
Sunday
Aug 1

Clouds
88 °F
81 °F
66%
57%
Monday
Aug 2

Rain
87 °F
81 °F
99%
63%
Tuesday
Aug 3

Rain
89 °F
80 °F
84%
59%
Wednesday
Aug 4

Rain
88 °F
77 °F
100%
61%
Thursday
Aug 5

Rain
86 °F
79 °F
100%
75%
Friday
Aug 6

Rain
90 °F
76 °F
97%
66%
Saturday
Aug 7

Rain
88 °F
73 °F
100%
59%
Sunday
Aug 8

Rain
89 °F
76 °F
100%
59%
Monday
Aug 9

Rain
89 °F
80 °F
100%
62%
Tuesday
Aug 10

Rain
89 °F
81 °F
79%
58%
Wednesday
Aug 11

Rain
89 °F
81 °F
68%
56%

Temperature 8-14 Day Outlook



Precipitation 8-14 Day Outlook




Quick Links
Naples News
Naples Photos
Naples Videos




About Us
Contact Us
Site Map
Search Site
Advertise With Us
   
Naples.USGulf.info
THE NAPLES WEBSITE

Copyright 2021, Coastal Town
Privacy    |    Legal